FENGYUN 1C DEB

Satellite information

Favourite Embed

Satellite Type and Status

DEBRISIN ORBIT

Key statistics

Satellite FENGYUN 1C DEB at a glance.

Uptime

9715

Days in orbit

Revolutions

≈ 14.1

Per day

Orbit

SSO

Sun Synchronous Orbit

Inclination

98.5

Latest

Satellite identification and parameters

Extended collection of information and parameters for FENGYUN 1C DEB.

Object identification

Identified? True

Debris? True

Object name: FENGYUN 1C DEB

International designator: 1999-025ALF

Object number (NORAD): 30565

Object ID (CCSDS): 30565

Country: PEOPLES REPUBLIC OF CHINA (PRC)

Current information (Y/N): Y

RCS size: SMALL

Orbital parameters

Period: 102.132 minutes

Inclination: 98.4546 deg

SMA: 7237.701 km

Apoapsis: 962.305 km

Periapsis: 756.827 km

RAAN: 217.7766 deg

Eccentricy: 0.01419498

Argument of periapsis: 354.3371 deg

Mean anomaly: 34.495 deg

Mean motion: 14.09943701 rev/day

Mean motion (dot): 0.00004203 rev/day2

B* drag term: 0.0021923194 1/REarth

Two-line elements (TLE)

Creation date: Dec. 14, 2025, 3:07 a.m.

Reference frame: TEME

Reference center: EARTH

Epoch: Dec. 13, 2025, 2:26 p.m. UTC

TLE line 0: 0 FENGYUN 1C DEB

TLE line 1: 1 30565U 99025ALF 25347.60175591 .00004203 00000-0 21923-2 0 9997

TLE line 2: 2 30565 98.4546 217.7766 0141950 354.3371 34.4950 14.09943701959397

Live tracking on map

Real-time ground track for satellite FENGYUN 1C DEB.

In-orbit conjunctions

A list of the most updated potential collisions computed for object FENGYUN 1C DEB.

Target Orbit TCA Probability of collision Miss distance Type
COSMOS 2251 DEB LEO 2025-11-01 23:00:33 0.0001287062 80.0 (m) DEBRIS
CZ-4 DEB SSO 2025-06-25 17:19:04 0.0001221671 55.0 (m) DEBRIS
COSMOS 1110 LEO 2024-08-28 06:40:33 0.0001972258 507.0 (m) PAYLOAD

Associated space launch

Chinese polar orbiting meteorological satellite

FENGYUN 1C DEB was lifted into orbit during the mission ‘Long March 4B | Feng Yun 1C’, on board a Long March 4B space rocket.

The launch took place on May 10, 1999, 1:33 a.m. from Launch Complex 7.

For more information about the launch, click the button.

Launch to space Long March 4B | Feng Yun 1C
Long March 4B | Feng Yun 1C

Agency: N/A

Status: Launch Successful

Launch date: May 10, 1999, 1:33 a.m. UTC

Rocket: Long March 4B

Launch pad: Launch Complex 7

Location: Taiyuan Satellite Launch Center, People's Republic of China

...

Latest news about this satellite

There are no fresh news available about this satellite. Check back as we update our databases every day.


Newsletter sign-up

Weekly statistics, charts and insights to help you stay on top of the space industry.